Flag Weather past 2 weeks in Darmstadt, Hesse, Germany

Now
46 °F

Scattered clouds.


Feels Like: 44 °F
Forecast: 42 / 52 °F
Wind: 6 mph from North

Location: Frankfurt-M-Flughafen Airport

Current Time: Nov 23, 2014 at 1:39:48 PM

Latest Report: Nov 23, 2014 at 1:20 PM


Visibility: N/A

Pressure: 30.15 "Hg

Humidity: 82%

Dew point: 41 °F

Location of DarmstadtLocation

Historic Weather in Darmstadt — Graph

°F

Darmstadt temperature yesterday

Maximum temperature yesterday: 46 °F (at 1:20 PM)
Minimum temperature yesterday: 36 °F (at 12:50 AM)
Average temperature yesterday: 41 °F

Past Weeks' High & Low Weather Summary

 TemperatureHumidityPressure
High55 °F (Nov 8, 2:50 PM)100% (Nov 9, 2:20 AM)30.33 "Hg (Nov 9, 2:20 AM)
Low36 °F (Nov 21, 4:50 AM)66% (Nov 21, 1:20 PM)29.50 "Hg (Nov 16, 5:50 AM)
Average47 °F89%29.89 "Hg
* Reported Nov 8 12:20 PM — Nov 23 12:20 PM, Darmstadt, Weather by CustomWeather, © 2014

Note: Actual official high and low records may vary slightly from our data, if they occured in-between our weather recording intervals... More about our weather records

Advertising

Darmstadt weather history for previous 24 hours

 ConditionsComfort  
Time TempWeatherWind HumidityBarometerVisibility
12:20 PM
Nov 23
45 °FScattered clouds.2 mph87%30.18 "HgN/A
11:50 AM43 °FPartly sunny.2 mph87%30.18 "HgN/A
11:20 AM41 °FPartly sunny.5 mph93%30.21 "HgN/A
10:50 AM41 °FPartly sunny.2 mph93%30.21 "Hg5 mi
10:20 AM41 °FLow clouds.3 mph93%30.21 "Hg4 mi
9:50 AM41 °FMore clouds than sun.No wind93%30.21 "Hg4 mi
9:20 AM41 °FFog.2 mph93%30.21 "Hg3 mi
8:50 AM41 °FFog.6 mph93%30.21 "Hg3 mi
8:20 AM41 °FFog.5 mph93%30.21 "Hg2 mi
7:50 AM41 °FFog.7 mph93%30.18 "Hg2 mi
7:20 AM41 °FFog.6 mph93%30.18 "Hg3 mi
6:50 AM41 °FLow clouds.6 mph93%30.18 "Hg4 mi
6:20 AM41 °FLow clouds.5 mph93%30.18 "Hg4 mi
5:50 AM41 °FLow clouds.6 mph93%30.18 "Hg4 mi
5:20 AM39 °FFog.5 mph100%30.18 "Hg3 mi
4:50 AM39 °FLow clouds.3 mph100%30.18 "Hg4 mi
4:20 AM41 °FLow clouds.5 mph93%30.18 "Hg4 mi
3:50 AM41 °FLow clouds.7 mph93%30.18 "Hg4 mi
3:20 AM41 °FLow clouds.7 mph93%30.18 "Hg4 mi
2:50 AM41 °FLow clouds.6 mph93%30.18 "Hg4 mi
2:20 AM41 °FLow clouds.6 mph93%30.18 "Hg4 mi
1:50 AM41 °FLow clouds.6 mph93%30.18 "Hg4 mi
1:20 AM41 °FLow clouds.6 mph93%30.18 "Hg4 mi
12:50 AM41 °FFog.7 mph100%30.18 "Hg3 mi
12:20 AM41 °FFog.9 mph100%30.18 "Hg3 mi
11:50 PM
Nov 22
41 °FFog.8 mph100%30.18 "Hg3 mi
11:20 PM41 °FFog.8 mph100%30.18 "Hg3 mi
10:50 PM41 °FPassing clouds.7 mph100%30.18 "Hg4 mi
10:20 PM41 °FPassing clouds.7 mph93%30.18 "Hg5 mi
9:50 PM41 °FPassing clouds.7 mph93%30.18 "Hg5 mi
9:20 PM43 °FPassing clouds.8 mph87%30.18 "Hg5 mi
8:50 PM41 °FPassing clouds.7 mph93%30.18 "Hg5 mi
8:20 PM43 °FPassing clouds.9 mph93%30.18 "Hg5 mi
7:50 PM43 °FPassing clouds.9 mph93%30.15 "Hg5 mi
7:20 PM43 °FPassing clouds.8 mph93%30.15 "Hg5 mi
6:50 PM43 °FClear.8 mph93%30.15 "Hg5 mi
6:20 PM43 °FClear.7 mph93%30.15 "Hg5 mi
5:50 PM43 °FClear.8 mph93%30.15 "Hg6 mi
5:20 PM45 °FClear.9 mph87%30.15 "Hg6 mi
4:50 PM45 °FClear.8 mph81%30.15 "Hg6 mi
4:20 PM46 °FClear.7 mph82%30.15 "Hg6 mi
3:50 PM46 °FSunny.6 mph82%30.15 "Hg10 mi
3:20 PM46 °FSunny.6 mph82%30.15 "Hg10 mi
2:50 PM46 °FSunny.6 mph76%30.15 "Hg10 mi
2:20 PM46 °FPassing clouds.3 mph76%30.15 "HgN/A
1:50 PM46 °FPartly sunny.5 mph76%30.15 "HgN/A
1:20 PM46 °FPassing clouds.5 mph76%30.15 "HgN/A
Weather by CustomWeather, © 2014

See weather overviewHow to use our weather pages